Date String (YYYY-MM-DD hh:mm:ss) UTC,Instrument flags,Ambient pressure (hPa),Sample flow (lpm),Bypass flow (lpm),Sample temperature (°C),Ambient temperature (°C),ASC tube jacket temperature (°C),LED temperature (°C),Box temperature (°C),Sample RH (%),Span deviation,Mass concentration (μg/m³),Mass concentration (μg/m³),Mass concentration (μg/m³)
DateTimeUTC,F1_M11,P_M11,Q1_M11,Q2_M11,T1_M11,T2_M11,T3_M11,T4_M11,T5_M11,U1_M11,ZSPAN_M11,X0_M11,X2_M11,X1_M11
2023-05-27 16:00:00,,0828.4,5.01,0.00,28.2,26.9,00.0,36.5,29.9,30.1,0000.0,0008.85,0004.16,0003.45
2023-05-27 16:01:00,,0828.3,4.99,0.00,28.2,26.9,00.0,36.5,29.9,30.1,0000.0,0008.86,0004.18,0003.46
2023-05-27 16:02:00,,0828.4,4.99,0.00,28.2,26.9,00.0,36.5,29.9,30.5,0000.0,0009.01,0004.19,0003.49
2023-05-27 16:03:00,,0828.4,4.99,0.00,28.2,26.9,00.0,36.5,29.9,30.4,0000.0,0009.02,0004.21,0003.53
2023-05-27 16:04:00,,0828.4,5.00,0.00,28.3,26.9,00.0,36.5,29.9,29.6,0000.0,0009.00,0004.23,0003.57
2023-05-27 16:05:00,,0828.3,5.01,0.00,28.3,26.8,00.0,36.5,29.9,30.1,0000.0,0009.13,0004.23,0003.61
2023-05-27 16:06:00,,0828.4,5.00,0.00,28.3,26.9,00.0,36.6,29.9,31.2,0000.2,0009.24,0004.28,0003.65
2023-05-27 16:07:00,,0828.3,5.00,0.00,28.3,26.9,00.0,36.6,30.0,31.6,0000.1,0009.27,0004.30,0003.68
2023-05-27 16:08:00,,0828.3,4.99,0.00,28.3,26.9,00.0,36.6,30.0,31.3,0000.1,0009.31,0004.31,0003.70
2023-05-27 16:09:00,,0828.3,5.00,0.00,28.3,26.9,00.0,36.6,30.0,31.3,0000.1,0009.62,0004.32,0003.71
2023-05-27 16:10:00,,0828.3,5.02,0.00,28.3,26.9,00.0,36.6,30.0,30.4,0000.3,0009.56,0004.36,0003.74
2023-05-27 16:11:00,,0828.3,5.01,0.00,28.3,26.9,00.0,36.6,30.0,30.0,0000.5,0009.80,0004.43,0003.79
2023-05-27 16:12:00,,0828.2,5.01,0.00,28.3,26.9,00.0,36.6,30.0,30.6,0000.2,0010.32,0004.46,0003.83
2023-05-27 16:13:00,,0828.2,4.99,0.00,28.3,26.9,00.0,36.6,30.0,30.3,0000.0,0010.31,0004.45,0003.82
2023-05-27 16:14:00,,0828.2,4.99,0.00,28.4,26.9,00.0,36.7,30.0,30.3,-000.3,0010.18,0004.46,0003.81
2023-05-27 16:15:00,,0828.2,5.00,0.00,28.4,27.0,00.0,36.7,30.0,29.7,-000.1,0010.01,0004.43,0003.79
2023-05-27 16:16:00,,0828.1,5.01,0.00,28.4,27.0,00.0,36.7,30.0,30.1,0000.2,0009.55,0004.38,0003.76
2023-05-27 16:17:00,,0828.2,5.01,0.00,28.4,27.0,00.0,36.7,30.1,29.7,0000.7,0009.36,0004.32,0003.72
2023-05-27 16:18:00,,0828.2,5.00,0.00,28.4,27.1,00.0,36.7,30.1,29.4,0001.0,0009.32,0004.29,0003.68
2023-05-27 16:19:00,,0828.2,5.00,0.00,28.4,27.1,00.0,36.7,30.1,28.7,0000.7,0009.66,0004.25,0003.64
2023-05-27 16:20:00,,0828.1,4.99,0.00,28.4,27.1,00.0,36.7,30.1,29.2,0000.0,0009.31,0004.18,0003.61
2023-05-27 16:21:00,,0828.1,5.00,0.00,28.5,27.2,00.0,36.7,30.2,29.1,0000.0,0008.67,0004.13,0003.56
2023-05-27 16:22:00,,0828.1,5.00,0.00,28.5,27.2,00.0,36.8,30.2,30.0,0000.0,0008.44,0004.05,0003.49
2023-05-27 16:23:00,,0828.1,5.00,0.00,28.5,27.2,00.0,36.8,30.2,30.2,0000.0,0007.76,0003.96,0003.44
2023-05-27 16:24:00,,0828.1,5.00,0.00,28.5,27.2,00.0,36.8,30.2,29.8,0000.0,0007.57,0003.94,0003.42
2023-05-27 16:25:00,,0828.1,5.00,0.00,28.5,27.2,00.0,36.8,30.2,29.2,0000.0,0007.49,0003.92,0003.41
2023-05-27 16:26:00,,0828.1,4.99,0.00,28.6,27.3,00.0,36.8,30.2,28.9,0000.0,0007.26,0003.89,0003.40
2023-05-27 16:27:00,,0828.1,4.99,0.00,28.6,27.3,00.0,36.8,30.3,29.5,0000.0,0007.30,0003.89,0003.38
2023-05-27 16:28:00,,0828.0,5.01,0.00,28.6,27.3,00.0,36.8,30.3,29.1,0000.0,0007.30,0003.88,0003.39
2023-05-27 16:29:00,,0828.1,5.00,0.00,28.6,27.3,00.0,36.9,30.3,29.2,0000.0,0007.50,0003.87,0003.39
2023-05-27 16:30:00,,0828.1,5.00,0.00,28.6,27.3,00.0,36.9,30.3,29.1,0000.0,0007.50,0003.87,0003.40
2023-05-27 16:31:00,,0828.1,4.98,0.00,28.6,27.3,00.0,36.9,30.3,29.8,0000.0,0007.55,0003.90,0003.39
2023-05-27 16:32:00,,0828.1,5.00,0.00,28.6,27.4,00.0,36.9,30.3,29.7,0000.0,0007.58,0003.93,0003.41
2023-05-27 16:33:00,,0828.1,5.01,0.00,28.7,27.4,00.0,36.9,30.3,29.7,0000.0,0007.58,0003.95,0003.42
2023-05-27 16:34:00,,0828.1,4.99,0.00,28.7,27.4,00.0,36.9,30.4,30.7,0000.0,0007.56,0003.94,0003.44
2023-05-27 16:35:00,,0828.1,4.99,0.00,28.7,27.4,00.0,36.9,30.4,30.2,0000.0,0007.57,0003.94,0003.44
2023-05-27 16:36:00,,0828.1,4.99,0.00,28.7,27.4,00.0,36.9,30.4,30.2,0000.0,0007.63,0003.96,0003.43
2023-05-27 16:37:00,,0828.1,5.02,0.00,28.7,27.4,00.0,37.0,30.4,28.9,0000.0,0007.74,0003.99,0003.43
2023-05-27 16:38:00,,0828.1,5.00,0.00,28.7,27.3,00.0,37.0,30.4,28.7,0000.0,0007.95,0004.00,0003.44
2023-05-27 16:39:00,,0828.1,4.99,0.00,28.7,27.3,00.0,37.0,30.4,28.6,0000.0,0008.32,0004.05,0003.44
2023-05-27 16:40:00,,0828.0,5.01,0.00,28.7,27.3,00.0,37.0,30.4,28.6,0000.0,0008.30,0004.06,0003.45
2023-05-27 16:41:00,,0827.9,4.99,0.00,28.7,27.4,00.0,37.0,30.4,28.8,0000.0,0007.79,0004.05,0003.45
2023-05-27 16:42:00,,0827.9,4.99,0.00,28.8,27.4,00.0,37.0,30.4,30.0,0000.0,0007.71,0004.02,0003.45
2023-05-27 16:43:00,,0827.8,5.00,0.00,28.8,27.4,00.0,37.0,30.5,29.9,0000.0,0007.70,0004.02,0003.46
2023-05-27 16:44:00,,0827.9,5.00,0.00,28.8,27.4,00.0,37.0,30.4,29.6,0000.0,0007.76,0004.03,0003.47
2023-05-27 16:45:00,,0827.8,5.01,0.00,28.8,27.4,00.0,37.1,30.4,29.9,0000.0,0007.87,0004.05,0003.46
2023-05-27 16:46:00,,0827.9,5.00,0.00,28.8,27.4,00.0,37.1,30.5,29.1,0000.0,0008.00,0004.07,0003.46
2023-05-27 16:47:00,,0827.8,5.00,0.00,28.8,27.4,00.0,37.1,30.4,28.6,0000.0,0008.13,0004.07,0003.46
2023-05-27 16:48:00,,0827.8,5.00,0.00,28.8,27.4,00.0,37.1,30.5,28.7,0000.0,0008.00,0004.01,0003.45
2023-05-27 16:49:00,,0827.8,5.00,0.00,28.8,27.4,00.0,37.1,30.5,28.2,0000.0,0007.85,0003.99,0003.44
2023-05-27 16:50:00,,0827.8,5.00,0.00,28.8,27.5,00.0,37.1,30.5,28.2,0000.0,0007.47,0003.95,0003.43
2023-05-27 16:51:00,,0827.8,5.00,0.00,28.8,27.5,00.0,37.1,30.5,28.1,0000.0,0007.56,0003.95,0003.43
2023-05-27 16:52:00,,0827.8,4.99,0.00,28.9,27.5,00.0,37.2,30.5,27.8,0000.0,0007.48,0003.95,0003.43
2023-05-27 16:53:00,,0827.8,4.99,0.00,28.9,27.6,00.0,37.2,30.6,27.7,0000.0,0007.42,0003.96,0003.43
2023-05-27 16:54:00,,0827.8,5.00,0.00,28.9,27.6,00.0,37.2,30.6,28.4,0000.0,0007.52,0003.99,0003.42
2023-05-27 16:55:00,,0827.8,5.01,0.00,28.9,27.6,00.0,37.2,30.6,29.3,0000.0,0007.54,0003.99,0003.42
2023-05-27 16:56:00,,0827.8,5.00,0.00,28.9,27.6,00.0,37.2,30.6,29.9,0000.0,0007.42,0003.97,0003.43
2023-05-27 16:57:00,,0827.7,5.00,0.00,28.9,27.6,00.0,37.2,30.6,29.4,0000.0,0007.35,0003.98,0003.45
2023-05-27 16:58:00,,0827.8,5.00,0.00,28.9,27.6,00.0,37.2,30.6,29.1,0000.0,0007.27,0004.02,0003.47
2023-05-27 16:59:00,,0827.8,4.99,0.00,28.9,27.6,00.0,37.2,30.6,29.5,0000.0,0007.46,0004.08,0003.49
